Find OV2-5

NORAD ID: 3428 Int'l Des: 1968-081 Owner: SAMSO Country: US operational
MEOCIRCULAR

リアルタイム位置

3D地球を読み込み中...

OV2-5について

説明を読み込み中...

次回通過

Passes for default location (London). Set your location on the main map for personalized predictions.

高度履歴

Loading altitude history...

軌道要素

1 3428U 68081A 26104.16632264 -.00000025 00000-0 00000+0 0 9990
2 3428 1.8738 48.8862 0080873 284.2917 326.9369 1.01559456120402
Epoch: Apr 14, 2026 • Age: 11 hours

現在のステータス

高度 35671.4 km
速度 3.07 km/s
衛星直下点 1.62°N, 40.66°E
タイプ other

Most Searched